Weather History for Culpeper, VA

Change the Weather History Date:

Saturday, January 21, 2012

  Actual Average (KOMH) Record (KOMH)
Temperature  
Mean Temperature 32 °F -  
Max Temperature 35 °F 41 °F 68 °F (1959)
Min Temperature 28 °F 21 °F -9 °F (1970)
Degree Days  
Heating Degree Days 34    
Moisture  
Dew Point 30 °F    
Average Humidity 92    
Maximum Humidity 100    
Minimum Humidity 81    
Precipitation  
Precipitation 0.05 in - - ()
Sea Level Pressure  
Sea Level Pressure 30.04 in    
Wind  
Wind Speed 3 mph (NNE)    
Max Wind Speed 15 mph    
Max Gust Speed 20 mph    
Visibility 8 miles    
Events Snow    
Averages and records for this station are not official NWS values.
T = Trace of Precipitation, MM = Missing Value Source: NWS Daily Summary

Daily Weather History Graph

Daily Weather History Graph

Search for Another Location

Airport:

Trip Planner

Search our weather history database for the weather conditions in past years. The results will help you decide how hot, cold, wet, or windy it might be!

Date:

Astronomy

Jan. 21, 2012 Rise Set
Actual Time 7:25 AM EST 5:20 PM EST
Civil Twilight 6:56 AM EST 5:49 PM EST
Nautical Twilight 6:24 AM EST 6:21 PM EST
Astronomical Twilight 5:52 AM EST 6:53 PM EST
Moon 5:53 AM EST (1/21) 3:54 PM EST (1/21)
Length of Visible Light 10h 52m
Length of Day
9h 55m
Waning Crescent, 3% of the Moon is Illuminated
Jan 21
Waning Crescent
Jan 23
New
Jan 30
First Quarter
Feb 7
Full
Feb 14
Last Quarter

Hourly Weather History & Observations

Time (EST) Temp. Windchill Dew Point Humidity Pressure Visibility Wind Dir Wind Speed Gust Speed Precip Events Conditions
12:15 AM 28.4 °F - 26.6 °F 93% 30.17 in 5.0 mi Calm Calm - N/A Snow Light Snow
12:35 AM 28.4 °F - 26.6 °F 93% 30.15 in 5.0 mi Calm Calm - N/A   Overcast
12:55 AM 28.4 °F - 26.6 °F 93% 30.16 in 7.0 mi Calm Calm - N/A   Overcast
1:15 AM 28.4 °F - 26.6 °F 93% 30.14 in 5.0 mi Calm Calm - N/A   Overcast
1:35 AM 28.4 °F - 26.6 °F 93% 30.13 in 5.0 mi Calm Calm - N/A   Overcast
1:55 AM 28.4 °F - 28.4 °F 100% 30.13 in 5.0 mi Calm Calm - 0.01 in   Overcast
2:15 AM 30.2 °F - 28.4 °F 93% 30.11 in 2.5 mi Calm Calm - N/A   Overcast
2:35 AM 28.4 °F - 28.4 °F 100% 30.10 in 3.0 mi Calm Calm - 0.01 in   Overcast
3:55 AM 30.2 °F - 28.4 °F 93% 30.03 in 2.0 mi Calm Calm - 0.01 in   Overcast
4:15 AM 30.2 °F - 28.4 °F 93% 30.03 in 1.8 mi Calm Calm - N/A   Overcast
4:35 AM 30.2 °F 26.7 °F 30.2 °F 100% 30.03 in 2.5 mi North 3.5 mph - N/A   Overcast
4:55 AM 30.2 °F 26.7 °F 30.2 °F 100% 30.00 in 2.5 mi North 3.5 mph - N/A   Overcast
5:15 AM 30.2 °F - 30.2 °F 100% 29.99 in 2.0 mi Calm Calm - N/A   Overcast
5:35 AM 30.2 °F - 30.2 °F 100% 29.99 in 2.0 mi Calm Calm - N/A   Overcast
5:55 AM 30.2 °F - 30.2 °F 100% 29.98 in 2.0 mi Calm Calm - N/A   Overcast
6:15 AM 30.2 °F - 30.2 °F 100% 29.96 in 3.0 mi Calm Calm - 0.01 in   Overcast
6:35 AM 30.2 °F - 30.2 °F 100% 29.95 in 3.0 mi Calm Calm - 0.02 in   Overcast
6:55 AM 30.2 °F - 30.2 °F 100% 29.95 in 5.0 mi Calm Calm - 0.02 in   Overcast
7:15 AM 30.2 °F - 30.2 °F 100% 29.96 in 10.0 mi Calm Calm - N/A   Overcast
7:35 AM 30.2 °F 26.7 °F 30.2 °F 100% 29.96 in 5.0 mi ENE 3.5 mph - N/A   Overcast
7:55 AM 30.2 °F 26.7 °F 30.2 °F 100% 29.95 in 10.0 mi NE 3.5 mph - N/A   Overcast
8:15 AM 30.2 °F - 30.2 °F 100% 29.96 in 10.0 mi Calm Calm - N/A   Overcast
8:35 AM 30.2 °F - 30.2 °F 100% 29.96 in 7.0 mi Calm Calm - N/A   Overcast
8:55 AM 30.2 °F - 30.2 °F 100% 29.97 in 7.0 mi Calm Calm - N/A   Overcast
9:15 AM 30.2 °F 26.7 °F 30.2 °F 100% 29.96 in 10.0 mi NNE 3.5 mph - N/A   Overcast
9:35 AM 32.0 °F 26.4 °F 30.2 °F 93% 29.95 in 10.0 mi NNE 5.8 mph - N/A   Overcast
9:55 AM 32.0 °F 24.8 °F 30.2 °F 93% 29.96 in 10.0 mi North 8.1 mph - N/A   Overcast
10:15 AM 32.0 °F 25.6 °F 30.2 °F 93% 29.97 in 10.0 mi North 6.9 mph - N/A   Overcast
10:35 AM 32.0 °F 27.5 °F 30.2 °F 93% 29.97 in 10.0 mi North 4.6 mph - N/A   Overcast
10:55 AM 32.0 °F 27.5 °F 30.2 °F 93% 29.97 in 10.0 mi NNE 4.6 mph - N/A   Overcast
11:15 AM 32.0 °F 28.7 °F 30.2 °F 93% 29.97 in 10.0 mi NNE 3.5 mph - N/A   Overcast
11:35 AM 32.0 °F 26.4 °F 30.2 °F 93% 29.97 in 10.0 mi North 5.8 mph - N/A   Overcast
11:55 AM 33.8 °F 29.6 °F 30.2 °F 87% 29.98 in 10.0 mi North 4.6 mph - N/A   Overcast
12:15 PM 33.8 °F 30.8 °F 30.2 °F 87% 29.97 in 10.0 mi North 3.5 mph - N/A   Overcast
12:35 PM 33.8 °F 28.6 °F 30.2 °F 87% 29.95 in 10.0 mi NE 5.8 mph - N/A   Overcast
12:55 PM 33.8 °F 28.6 °F 30.2 °F 87% 29.96 in 10.0 mi North 5.8 mph - N/A   Overcast
1:15 PM 33.8 °F 29.6 °F 30.2 °F 87% 29.96 in 10.0 mi NNE 4.6 mph - N/A   Overcast
1:35 PM 33.8 °F 28.6 °F 30.2 °F 87% 29.96 in 10.0 mi NNE 5.8 mph - N/A   Overcast
1:55 PM 33.8 °F 28.6 °F 32.0 °F 93% 29.96 in 10.0 mi NNE 5.8 mph - N/A   Overcast
2:15 PM 33.8 °F - 32.0 °F 93% 29.97 in 10.0 mi Calm Calm - N/A   Overcast
2:35 PM 33.8 °F 28.6 °F 32.0 °F 93% 29.99 in 10.0 mi NNE 5.8 mph - N/A   Overcast
2:55 PM 33.8 °F 27.0 °F 32.0 °F 93% 29.99 in 10.0 mi NNE 8.1 mph - N/A   Mostly Cloudy
3:15 PM 35.6 °F 27.5 °F 32.0 °F 87% 30.00 in 10.0 mi North 11.5 mph - N/A   Scattered Clouds
3:35 PM 35.6 °F 28.6 °F 32.0 °F 87% 30.02 in 10.0 mi North 9.2 mph - N/A   Scattered Clouds
3:55 PM 35.6 °F 28.6 °F 32.0 °F 87% 30.03 in 10.0 mi North 9.2 mph - N/A   Clear
4:15 PM 35.6 °F 29.2 °F 32.0 °F 87% 30.05 in 10.0 mi North 8.1 mph - N/A   Mostly Cloudy
4:35 PM 35.6 °F 28.6 °F 32.0 °F 87% 30.08 in 10.0 mi North 9.2 mph - N/A   Scattered Clouds
4:55 PM 35.6 °F 28.6 °F 30.2 °F 81% 30.08 in 10.0 mi NNE 9.2 mph - N/A   Clear
5:15 PM 33.8 °F 26.4 °F 30.2 °F 87% 30.09 in 10.0 mi North 9.2 mph - N/A   Clear
5:35 PM 33.8 °F 27.7 °F 30.2 °F 87% 30.12 in 10.0 mi North 6.9 mph - N/A   Scattered Clouds
5:55 PM 33.8 °F 27.0 °F 32.0 °F 93% 30.13 in 10.0 mi North 8.1 mph - N/A   Mostly Cloudy
6:15 PM 33.8 °F 27.7 °F 30.2 °F 87% 30.14 in 10.0 mi North 6.9 mph - N/A   Mostly Cloudy
6:35 PM 33.8 °F 28.6 °F 30.2 °F 87% 30.15 in 10.0 mi North 5.8 mph - N/A   Overcast
6:55 PM 33.8 °F 27.0 °F 30.2 °F 87% 30.16 in 10.0 mi NNE 8.1 mph - N/A   Overcast
7:15 PM 33.8 °F 27.7 °F 30.2 °F 87% 30.17 in 10.0 mi NNE 6.9 mph - N/A   Overcast
7:35 PM 33.8 °F 27.7 °F 30.2 °F 87% 30.19 in 10.0 mi North 6.9 mph - N/A   Overcast
8:35 PM 33.8 °F 25.3 °F 30.2 °F 87% 30.23 in 10.0 mi North 11.5 mph - N/A   Overcast
8:55 PM 33.8 °F 23.9 °F 28.4 °F 81% 30.25 in 10.0 mi North 15.0 mph 19.6 mph N/A   Overcast
9:15 PM 33.8 °F 26.4 °F 28.4 °F 81% 30.26 in 10.0 mi North 9.2 mph - N/A   Overcast
9:35 PM 33.8 °F 27.0 °F 28.4 °F 81% 30.26 in 10.0 mi North 8.1 mph - N/A   Overcast
9:55 PM 33.8 °F 28.6 °F 28.4 °F 81% 30.26 in 10.0 mi North 5.8 mph - N/A   Overcast
10:35 PM 33.8 °F 27.7 °F 28.4 °F 81% 30.27 in 10.0 mi North 6.9 mph - N/A   Overcast
10:55 PM 33.8 °F 29.6 °F 28.4 °F 81% 30.27 in 10.0 mi North 4.6 mph - N/A   Overcast
11:15 PM 33.8 °F 27.0 °F 28.4 °F 81% 30.27 in 10.0 mi North 8.1 mph - N/A   Overcast
11:35 PM 33.8 °F 26.4 °F 28.4 °F 81% 30.27 in 10.0 mi North 9.2 mph - N/A   Overcast
11:55 PM 33.8 °F 26.4 °F 28.4 °F 81% 30.28 in 10.0 mi North 9.2 mph - N/A   Overcast